WD4GTY Weather Reports


Display with metric or nautical units.
time (UTC)temp
F
wind
direction
speed
MPH
gust
MPH
rain 1hr
in
rain 24hr
in
rain mn
in
humidity
%
barometer
mb
20260906140105 75 0 0.0 1.0 0.00 0.43 0.00 93 1014.0
20260906134611 75 0 0.0 1.0 0.00 0.43 0.00 94 1014.1
20260906133059 74 0 0.0 2.0 0.00 0.43 0.00 94 1014.1
20260906131554 73 81 0.0 2.0 0.00 0.43 0.00 94 1014.1
20260906130053 73 0 0.0 2.0 0.00 0.43 0.00 94 1013.9
20260906124556 72 0 0.0 1.0 0.00 0.43 0.00 94 1013.8
20260906123135 72 0 0.0 0.0 0.00 0.43 0.00 94 1013.7
20260906121555 71 0 0.0 1.0 0.00 0.43 0.00 94 1013.6
20260906120055 71 0 0.0 1.0 0.00 0.43 0.00 93 1013.5
20260906114601 70 0 0.0 1.0 0.00 0.43 0.00 93 1013.6
20260906113101 70 0 0.0 0.0 0.00 0.43 0.00 93 1013.6
20260906111559 70 0 0.0 0.0 0.00 0.43 0.00 93 1013.4
20260906110105 70 0 0.0 0.0 0.00 0.43 0.00 93 1013.3
20260906104557 70 0 0.0 1.0 0.00 0.43 0.00 93 1013.4
20260906103057 70 0 0.0 0.0 0.00 0.43 0.00 93 1013.0
20260906101604 70 0 0.0 0.0 0.00 0.43 0.00 93 1013.0
20260906100101 70 0 0.0 0.0 0.00 0.43 0.00 93 1012.9
20260906094608 70 0 0.0 0.0 0.00 0.43 0.00 93 1013.0
20260906093058 70 0 0.0 0.0 0.00 0.43 0.00 93 1013.2
20260906091603 70 0 0.0 0.0 0.00 0.43 0.00 93 1013.2
20260906084606 70 0 0.0 0.0 0.00 0.43 0.00 93 1013.0
20260906083105 70 0 0.0 0.0 0.00 0.43 0.00 93 1012.9
20260906081604 70 0 0.0 0.0 0.00 0.43 0.00 93 1012.8
20260906080103 70 0 0.0 0.0 0.00 0.43 0.00 93 1012.9
20260906074606 70 0 0.0 1.0 0.00 0.43 0.00 93 1012.8
20260906073055 70 0 0.0 0.0 0.00 0.43 0.00 92 1012.9
20260906071556 70 0 0.0 1.0 0.00 0.43 0.00 92 1012.8
20260906070103 70 0 0.0 1.0 0.00 0.43 0.00 92 1013.0
20260906064559 70 0 0.0 0.0 0.00 0.43 0.00 93 1013.3
20260906063101 70 0 0.0 1.0 0.00 0.43 0.00 92 1013.3
20260906061600 70 0 0.0 1.0 0.00 0.43 0.00 92 1013.2
20260906060104 70 0 0.0 1.0 0.00 0.43 0.00 92 1013.4
20260906054601 70 0 0.0 0.0 0.00 0.43 0.00 92 1013.6
20260906053106 70 0 0.0 0.0 0.00 0.43 0.00 92 1013.6
20260906051559 70 0 0.0 1.0 0.00 0.43 0.00 92 1013.9
20260906050059 70 0 0.0 0.0 0.00 0.43 0.00 92 1014.1
20260906044556 71 0 0.0 1.0 0.00 0.43 0.00 92 1014.3
20260906043102 71 0 1.0 3.0 0.00 0.43 0.00 92 1014.0
20260906041600 70 0 0.0 1.0 0.00 0.43 0.00 92 1013.6
20260906040056 70 0 0.0 1.0 0.00 0.43 0.00 92 1013.3
20260906034601 70 0 0.0 1.0 0.00 0.43 0.43 92 1013.4
20260906033110 70 352 0.0 1.0 0.00 0.43 0.43 91 1013.1
20260906031553 70 0 0.0 1.0 0.00 0.43 0.43 91 1013.3
20260906030054 71 0 0.0 2.0 0.00 0.43 0.43 91 1013.5
20260906024556 71 352 1.0 2.0 0.00 0.43 0.43 91 1013.7
20260906023100 71 352 1.0 2.0 0.00 0.43 0.43 90 1013.8
20260906021606 71 0 0.0 1.0 0.00 0.43 0.43 90 1013.9
20260906020107 71 0 0.0 2.0 0.01 0.43 0.43 89 1014.1
20260906014602 71 311 0.0 2.0 0.09 0.43 0.43 89 1014.0
20260906013109 72 0 0.0 3.0 0.34 0.43 0.43 88 1014.1
20260906011609 72 344 1.0 4.0 0.43 0.43 0.43 87 1013.9
20260906010107 73 144 1.0 7.0 0.42 0.42 0.42 85 1013.2
20260906004611 76 203 1.0 3.0 0.34 0.34 0.34 82 1014.4
20260906003106 81 25 1.0 6.0 0.09 0.09 0.09 75 1014.6
20260906001553 85 338 1.0 8.0 0.00 0.00 0.00 65 1014.0
20260906000100 86 219 1.0 3.0 0.00 0.00 0.00 69 1013.5
20260905234559 87 203 0.0 3.0 0.00 0.00 0.00 67 1012.4
20260905233056 88 0 0.0 4.0 0.00 0.00 0.00 66 1011.8
20260905231553 88 199 1.0 4.0 0.00 0.00 0.00 64 1012.1
20260905230058 89 220 0.0 3.0 0.00 0.00 0.00 65 1012.4
20260905224603 89 220 0.0 5.0 0.00 0.00 0.00 65 1012.2
20260905223053 90 178 4.0 10.0 0.00 0.00 0.00 64 1012.2
20260905221556 91 119 1.0 8.0 0.00 0.00 0.00 62 1011.9
20260905220100 92 238 3.0 8.0 0.00 0.00 0.00 60 1011.8
20260905214603 94 250 1.0 7.0 0.00 0.00 0.00 57 1011.8
20260905213107 95 171 1.0 6.0 0.00 0.00 0.00 55 1012.0
20260905211559 95 0 1.0 9.0 0.00 0.00 0.00 56 1011.8
20260905210110 97 191 5.0 10.0 0.00 0.00 0.00 53 1011.8
20260905204603 98 156 2.0 8.0 0.00 0.00 0.00 49 1011.9
20260905203102 97 0 1.0 5.0 0.00 0.00 0.00 45 1011.9
20260905201556 96 198 2.0 9.0 0.00 0.00 0.00 48 1012.1
20260905200114 96 180 4.0 12.0 0.00 0.00 0.00 49 1012.4
20260905194609 98 192 6.0 11.0 0.00 0.00 0.00 46 1012.8
20260905193057 99 133 1.0 5.0 0.00 0.00 0.00 39 1013.1
20260905191559 100 188 1.0 6.0 0.00 0.00 0.00 38 1013.4
20260905190114 101 0 0.0 4.0 0.00 0.00 0.00 39 1013.2
20260905184623 98 78 2.0 5.0 0.00 0.00 0.00 40 1013.2
20260905183101 98 102 1.0 6.0 0.00 0.00 0.00 42 1013.5
20260905181603 97 5 0.0 4.0 0.00 0.00 0.00 44 1013.8
20260905180105 96 32 1.0 7.0 0.00 0.00 0.00 46 1013.9
20260905174600 96 100 1.0 5.0 0.00 0.00 0.00 43 1014.0
20260905173104 97 5 0.0 4.0 0.00 0.00 0.00 47 1014.1
20260905171624 95 0 1.0 5.0 0.00 0.00 0.00 49 1014.5
20260905170106 96 142 1.0 7.0 0.00 0.00 0.00 48 1014.6
20260905164557 94 0 0.0 5.0 0.00 0.00 0.00 50 1015.0
20260905163114 93 13 2.0 5.0 0.00 0.00 0.00 50 1015.1
20260905161602 93 347 3.0 6.0 0.00 0.00 0.00 52 1015.3
20260905160105 95 105 1.0 4.0 0.00 0.00 0.00 49 1015.1
20260905154615 93 205 0.0 4.0 0.00 0.00 0.00 54 1015.2
20260905153113 93 70 1.0 4.0 0.00 0.00 0.00 54 1015.3
20260905151614 92 0 0.0 3.0 0.00 0.00 0.00 56 1015.5
20260905150058 90 0 0.0 3.0 0.00 0.00 0.00 61 1015.5
20260905144603 88 0 2.0 4.0 0.00 0.00 0.00 62 1015.7
20260905143104 87 0 0.0 2.0 0.00 0.00 0.00 69 1015.8
20260905141601 85 5 0.0 2.0 0.00 0.00 0.00 73 1015.8